{"data":{"norad_id":66450,"epoch":"2026-09-20T23:12:10.367424Z","epoch_age_seconds":53062,"freshness":"FRESH","line1":"1 66450U 25259AE  26263.96678666  .00007504  00000+0  28184-3 0  9998","line2":"2 66450  43.0020 251.7581 0001316 269.8980  90.1721 15.27588900 49350","mean_motion":15.275889,"eccentricity":0.0001316,"inclination_deg":43.002,"raan_deg":251.7581,"arg_perigee_deg":269.898,"mean_anomaly_deg":90.1721,"bstar":0.00028184,"rev_number":4935,"period_min":94.266199499093,"perigee_km":482.11951778414,"apogee_km":483.92537495043,"semimajor_km":6861.1594463673,"source":"CELESTRAK","updated_at":"2026-09-21T09:00:35.912093Z"}}